Home   Weather   Gary   Past weeks

Flag for USA Past Weather in Gary, Indiana, USA — Yesterday and Last 2 Weeks

Now
59 °F

Sunny.


Feels Like: 56 °F
Forecast: 44 / 58 °F
Wind: 12 mph from Southwest

Location: Lansing Municipal Airport

Current Time: Jan 21, 2017 at 3:54:09 pm

Latest Report: Jan 21, 2017 at 3:35 pm


Visibility: 10 mi

Pressure: 29.49 "Hg

Humidity: 78%

Dew Point: 52 °F

Location of GaryLocation

Past Weather in Gary — Graph

°F

Gary Temperature Yesterday

Maximum temperature yesterday: 47 °F (at 11:55 pm)
Minimum temperature yesterday: 37 °F (at 4:15 am)
Average temperature yesterday: 41 °F

High & Low Weather Summary for the Past Weeks

 TemperatureHumidityPressure
High60 °F (Jan 21, 1:55 pm)100% (Jan 11, 12:55 pm)30.76 "Hg (Jan 11, 12:55 pm)
Low1 °F (Jan 7, 5:15 am)44% (Jan 8, 12:15 pm)29.29 "Hg (Jan 10, 2:15 pm)
Average30 °F88%30.14 "Hg
* Reported Jan 6 2:15 pm — Jan 21 2:35 pm, Gary, Weather by CustomWeather, © 2017

Note: Actual official high and low records may vary slightly from our data, if they occured in-between our weather recording intervals... More about our weather records

Advertising

Gary Weather History for the Previous 24 Hours

Scroll right to see more
 ConditionsComfort  
Time TempWeatherWind HumidityBarometerVisibility
2:35 pm
Sat, Jan 21
59 °FScattered clouds.17 mph77%29.48 "Hg10 mi
2:15 pm59 °FScattered clouds.14 mph76%29.48 "Hg10 mi
1:55 pm60 °FPartly sunny.16 mph78%29.48 "Hg10 mi
1:35 pm59 °FScattered clouds.15 mph78%29.49 "Hg10 mi
12:55 pm58 °FSunny.16 mph80%29.49 "Hg10 mi
12:35 pm58 °FSunny.13 mph81%29.50 "Hg10 mi
12:15 pm58 °FSunny.17 mph81%29.50 "Hg10 mi
11:55 am57 °FSunny.15 mph83%29.52 "Hg10 mi
11:35 am57 °FSunny.17 mph84%29.52 "Hg10 mi
11:15 am56 °FSunny.14 mph86%29.52 "Hg10 mi
10:55 am55 °FSunny.13 mph89%29.53 "Hg10 mi
10:35 am54 °FSunny.15 mph91%29.54 "Hg10 mi
10:15 am53 °FSunny.12 mph92%29.55 "Hg10 mi
9:55 am52 °FScattered clouds.12 mph95%29.56 "Hg10 mi
9:35 am51 °FScattered clouds.9 mph98%29.56 "Hg7 mi
9:15 am49 °FFog.9 mph100%29.55 "Hg5 mi
8:55 am48 °FFog.7 mph100%29.55 "Hg3 mi
8:35 am47 °FFog.6 mph100%29.55 "Hg2 mi
8:15 am47 °FFog.7 mph100%29.55 "Hg2 mi
7:55 am47 °FFog.9 mph100%29.55 "Hg2 mi
7:35 am47 °FFog.8 mph100%29.56 "Hg2 mi
7:15 am46 °FFog.7 mph100%29.56 "Hg4 mi
6:55 am47 °FFog.7 mph100%29.56 "Hg4 mi
6:35 am47 °FFog.8 mph100%29.55 "Hg5 mi
6:15 am47 °FFog.9 mph100%29.56 "Hg5 mi
5:55 am48 °FLow clouds.9 mph100%29.56 "Hg7 mi
5:35 am49 °FOvercast.9 mph100%29.56 "Hg7 mi
4:55 am48 °FOvercast.8 mph100%29.56 "Hg7 mi
4:35 am47 °FFog.6 mph100%29.56 "Hg5 mi
4:15 am46 °FFog.6 mph100%29.57 "Hg4 mi
3:55 am47 °FFog.6 mph100%29.57 "Hg4 mi
3:35 am46 °FFog.7 mph100%29.58 "Hg4 mi
3:15 am47 °FFog.7 mph100%29.58 "Hg4 mi
2:55 am47 °FFog.8 mph100%29.60 "Hg4 mi
2:35 am47 °FFog.6 mph100%29.60 "Hg5 mi
1:55 am47 °FFog.5 mph100%29.61 "Hg5 mi
1:35 am47 °FFog.6 mph100%29.61 "Hg5 mi
1:15 am46 °FFog.5 mph100%29.61 "Hg5 mi
12:55 am46 °FFog.5 mph100%29.62 "Hg5 mi
12:35 am48 °FMostly cloudy.5 mph100%29.61 "Hg7 mi
11:55 pm
Fri, Jan 20
47 °FLight rain. Overcast.5 mph100%29.63 "Hg5 mi
11:35 pm47 °FMostly cloudy.6 mph100%29.63 "Hg7 mi
11:15 pm47 °FFog.7 mph100%29.63 "Hg5 mi
10:55 pm46 °FFog.6 mph100%29.64 "Hg5 mi
10:35 pm46 °FFog.5 mph100%29.64 "Hg4 mi
10:15 pm46 °FLight rain. Overcast.3 mph100%29.65 "Hg5 mi
9:55 pm46 °FDrizzle. Overcast.6 mph100%29.65 "Hg5 mi
9:35 pm46 °FFog.6 mph100%29.66 "Hg5 mi
9:15 pm46 °FFog.6 mph100%29.66 "Hg5 mi
8:55 pm46 °FFog.6 mph100%29.66 "Hg4 mi
8:35 pm46 °FFog.7 mph100%29.66 "Hg4 mi
8:15 pm46 °FFog.6 mph100%29.66 "Hg5 mi
7:55 pm45 °FFog.5 mph100%29.66 "Hg5 mi
7:35 pm44 °FFog.3 mph100%29.66 "Hg4 mi
6:55 pm44 °FFog.5 mph100%29.66 "Hg4 mi
6:15 pm44 °FFog.7 mph100%29.66 "Hg5 mi
5:55 pm43 °FLow clouds.6 mph100%29.67 "Hg7 mi
5:35 pm44 °FLow clouds.3 mph100%29.67 "Hg7 mi
5:15 pm44 °FLow clouds.3 mph100%29.66 "Hg10 mi
4:55 pm43 °FLow clouds.No wind100%29.66 "Hg7 mi
4:35 pm44 °FFog.No wind100%29.66 "Hg5 mi
4:15 pm44 °FLow clouds.No wind100%29.66 "Hg7 mi
3:55 pm44 °FLow clouds.No wind100%29.65 "Hg7 mi
3:35 pm44 °FLow clouds.3 mph100%29.65 "Hg7 mi
3:15 pm44 °FLow clouds.3 mph99%29.65 "Hg7 mi
Weather by CustomWeather, © 2017

See weather overviewHow to use our weather pages